Regional Weather Roundup
Issued by NWS

Home | Current Version | Previous Version | Text Only | Print | Product List | Glossary Off
Versions: 1 2 3 4 5 6 7 8 9 10 11 12 13 14 15 16 17 18 19 20 21 22 23 24 25 26 27 28 29 30 31 32 33 34 35 36 37 38 39 40 41 42 43 44 45 46 47 48 49 50

000
ASUS43 KDTX 240010
RWRMI
MICHIGAN HOURLY REGIONAL WEATHER ROUNDUP
NATIONAL WEATHER SERVICE DETROIT/PONTIAC MI
800 PM EDT WED JUL 23 2014

NOTE: "FAIR" INDICATES FEW OR NO CLOUDS BELOW 12,000 FEET WITH NO
SIGNIFICANT WEATHER AND/OR OBSTRUCTION TO VISIBILITY.

MIZ047>049-052>055-059>063-066>070-074>076-081>083-240100-
SOUTHEAST LOWER MICHIGAN

CITY           SKY/WX    TMP DP  RH WIND       PRES   REMARKS
ADRIAN         MOSUNNY   72  56  57 NE7       30.06R
6HR MIN TEMP:  72; 6HR MAX TEMP:  76;

ALMA           SUNNY     66  54  66 N10G17    30.11R
6HR MIN TEMP:  66; 6HR MAX TEMP:  73;

ANN ARBOR      MOCLDY    71  55  56 NE8       30.06R
BAD AXE        CLEAR     64  49  57 N9        30.10S
6HR MIN TEMP:  64; 6HR MAX TEMP:  67;

DETROIT CITY   PTCLDY    71  55  56 NE9       30.06R
6HR MIN TEMP:  71; 6HR MAX TEMP:  74;

DETROIT        MOCLDY    71  55  56 N8        30.06R
6HR MIN TEMP:  71; 6HR MAX TEMP:  74;

FLINT          CLOUDY    70  55  59 N15       30.08R
6HR MIN TEMP:  70; 6HR MAX TEMP:  75;

GROSSE ILE     CLEAR     72  57  60 NE8       30.04R
HILLSDALE      MOSUNNY   72  58  60 NW5       30.07R
6HR MIN TEMP:  71; 6HR MAX TEMP:  74;

HOWELL         PTSUNNY   68  55  63 N8        30.07R
6HR MIN TEMP:  67; 6HR MAX TEMP:  73;


CITY           SKY/WX    TMP DP  RH WIND       PRES   REMARKS
JACKSON        MOSUNNY   71  57  61 N6        30.07R
6HR MIN TEMP:  69; 6HR MAX TEMP:  74;

LAMBERTVILLE   PTCLDY    72  55  56 NE5       30.05F
LANSING        MOSUNNY   70  54  56 N12       30.08R
6HR MIN TEMP:  70; 6HR MAX TEMP:  76;

LAPEER         NOT AVBL
MASON          PTSUNNY   69  56  62 N7        30.07R
MONROE         CLEAR     70  55  60 NE5       30.04R
MT. CLEMENS    PTCLDY    67  56  67 N13       30.05R
6HR MIN TEMP:  67; 6HR MAX TEMP:  70;

PONTIAC        PTCLDY    68  54  60 NE12      30.07R
6HR MIN TEMP:  68; 6HR MAX TEMP:  72;

PORT HOPE        N/A     66  54  65 CALM      30.08S
6HR MIN TEMP:  65; 6HR MAX TEMP:  68;

PORT HURON     CLEAR     63  55  77 N8        30.09R
TRI CITIES     PTSUNNY   68  57  68 NE10      30.10R
6HR MIN TEMP:  68; 6HR MAX TEMP:  76;

YPSILANTI      MOCLDY    74  53  48 N8        30.06R
6HR MIN TEMP:  74; 6HR MAX TEMP:  78;

$$
MIZ043>046-050>051-056>058-064>065-071>073-077>080-240100-
SOUTHWEST LOWER MICHIGAN

CITY           SKY/WX    TMP DP  RH WIND       PRES   REMARKS
BATTLE CREEK   SUNNY     73  53  49 N10       30.08R
6HR MIN TEMP:  72; 6HR MAX TEMP:  77;

BENTON HARBOR  SUNNY     63  55  75 VRB3      30.10S
6HR MIN TEMP:  63; 6HR MAX TEMP:  67;

BIG RAPIDS     CLOUDY    66  51  59 NW14G22   30.12S
6HR MIN TEMP:  66; 6HR MAX TEMP:  68;

COLDWATER      MOSUNNY   73  54  51 N8        30.07R
6HR MIN TEMP:  73; 6HR MAX TEMP:  76;

HOLLAND        SUNNY     68  57  68 NW10      30.10S
6HR MIN TEMP:  68; 6HR MAX TEMP:  75;

GRAND RAPIDS   MOSUNNY   71  56  58 N13       30.10R
6HR MIN TEMP:  70; 6HR MAX TEMP:  77;

KALAMAZOO      MOSUNNY   72  54  53 N8        30.08R
6HR MIN TEMP:  72; 6HR MAX TEMP:  77;

MARSHALL       SUNNY     69  54  57 CALM      30.07R
MUSKEGON       PTSUNNY   70  55  59 N15       30.11R
6HR MIN TEMP:  68; 6HR MAX TEMP:  76;

$$
MIZ016>042-240100-
NORTHERN LOWER MICHIGAN

CITY           SKY/WX    TMP DP  RH WIND       PRES   REMARKS
ALPENA         MOSUNNY   67  50  54 NW12      30.10S
6HR MIN TEMP:  67; 6HR MAX TEMP:  71;

BEAVER ISLAND  SUNNY     66  50  57 N7        30.16S
6HR MIN TEMP:  66; 6HR MAX TEMP:  71;

BELLAIRE       SUNNY     66  50  55 N5        30.13S
6HR MIN TEMP:  64; 6HR MAX TEMP:  69;

CADILLAC       PTSUNNY   63  51  65 NW10G17   30.13S
CHARLEVOIX     SUNNY     66  55  69 N7        30.17S
6HR MIN TEMP:  62; 6HR MAX TEMP:  68;

FRANKFORT      PTCLDY    66  51  60 N6        30.15S
GAYLORD        PTSUNNY   64  47  53 VRB6      30.13S
6HR MIN TEMP:  60; 6HR MAX TEMP:  68;

GRAYLING       PTSUNNY   67  52  59 N12       30.13F
6HR MIN TEMP:  63; 6HR MAX TEMP:  69;

HARBOR SPRINGS CLOUDY    67  51  55 CALM      30.13S
HOUGHTON LAKE  PTSUNNY   67  54  63 NW7       30.12S
6HR MIN TEMP:  64; 6HR MAX TEMP:  68;

MANISTEE       MOSUNNY   64  52  63 NW7       30.16S
OSCODA         MOSUNNY   68  46  45 N8        30.09S
PELLSTON       SUNNY     65  50  58 N7        30.14S
6HR MIN TEMP:  65; 6HR MAX TEMP:  71;

TRAVERSE CITY  MOSUNNY   67  49  52 N8        30.13S
6HR MIN TEMP:  63; 6HR MAX TEMP:  69;

$$
MIZ007>008-015-240100-
EASTERN UPPER MICHIGAN

CITY           SKY/WX    TMP DP  RH WIND       PRES   REMARKS
KINROSS        SUNNY     61  48  63 NW12      30.14S
6HR MIN TEMP:  61; 6HR MAX TEMP:  68;

MACKINAC ISLAN SUNNY     64  50  61 N12G18    30.13S
6HR MIN TEMP:  64; 6HR MAX TEMP:  69;

NEWBERRY       SUNNY     61  46  58 NW9G16    30.16S
S. S. MARIE    SUNNY     60  47  61 NW12      30.14S
6HR MIN TEMP:  60; 6HR MAX TEMP:  69;

$$
MIZ004>006-011>014-085-240100-
CENTRAL UPPER MICHIGAN

CITY           SKY/WX    TMP DP  RH WIND       PRES   REMARKS
MANISTIQUE     SUNNY     65  47  52 N12       30.17S
ESCANABA       SUNNY     68  45  42 NE10G16   30.16F
6HR MIN TEMP:  68; 6HR MAX TEMP:  72;

MENOMINEE      MOSUNNY   68  52  56 E8        30.16S
6HR MIN TEMP:  66; 6HR MAX TEMP:  70;

SAWYER-GWINN   SUNNY     64  45  48 NE9       30.20F
$$
MIZ001>003-009>011-084-240100-
WESTERN UPPER MICHIGAN

CITY           SKY/WX    TMP DP  RH WIND       PRES   REMARKS
IRON MOUNTAIN  SUNNY     69  45  41 N7        30.17S
6HR MIN TEMP:  68; 6HR MAX TEMP:  74;

HOUGHTON       SUNNY     67  46  47 NW7       30.20S
6HR MIN TEMP:  67; 6HR MAX TEMP:  70;

COPPER HARBOR    N/A     63  55  75 N13       30.19S
6HR MIN TEMP:  59; 6HR MAX TEMP:  65;

$$

ABBREVIATIONS USED IN REMARKS
   TC - TEMPERATURE IN CELSIUS
  WCI - WIND CHILL INDEX
   HX - HEAT INDEX
  VSB - VISIBILITY



USA.gov is the U.S. government's official web portal to all federal, state and local government web resources and services.